Home > Weather > Morden > Past weeks

Flag for Canada Past Weather in Morden, Manitoba, Canada — Yesterday and Last 2 Weeks

Now
57 °F

Cool.


Feels Like: 57 °F
Forecast: 54 / 85 °F
Wind: 3 mph from Southwest

Location: Morden CDA CS

Current Time: Aug 28, 2016 at 2:08:00 AM

Latest Report: Aug 28, 2016 at 1:00 AM


Visibility: N/A

Pressure: 29.94 "Hg

Humidity: 85%

Dew Point: 53 °F

Location of MordenLocation

Past Weather in Morden — Graph

°F

Morden Temperature Yesterday

Maximum temperature yesterday: 71 °F (at 2:00 PM)
Minimum temperature yesterday: 55 °F (at 6:00 AM)
Average temperature yesterday: 62 °F

High & Low Weather Summary for the Past Weeks

 TemperatureHumidityPressure
High88 °F (Aug 17, 5:00 PM)98% (Aug 23, 8:00 AM)30.06 "Hg (Aug 23, 8:00 AM)
Low49 °F (Aug 21, 2:00 AM)30% (Aug 18, 6:00 PM)29.58 "Hg (Aug 23, 11:00 AM)
Average67 °F67%29.89 "Hg
* Reported Aug 13 1:00 AM — Aug 28 1:00 AM, Morden, Weather by CustomWeather, © 2016

Note: Actual official high and low records may vary slightly from our data, if they occured in-between our weather recording intervals... More about our weather records

Advertising

Morden Weather History for the Previous 24 Hours

Scroll right to see more
 ConditionsComfort  
Time TempWeatherWind HumidityBarometerVisibility
1:00 AM
Sun, Aug 28
57 °FCool.3 mph85%29.94 "HgN/A
12:00 AM55 °FCool.2 mph94%29.95 "HgN/A
11:00 PM
Sat, Aug 27
58 °FCool.3 mph89%29.94 "HgN/A
10:00 PM58 °FCool.2 mph82%29.93 "HgN/A
9:00 PM62 °FCool.2 mph79%29.90 "HgN/A
8:00 PM66 °FMild.6 mph68%29.89 "HgN/A
7:00 PM69 °FMild.9 mph62%29.88 "HgN/A
6:00 PM67 °FMild.9 mph65%29.88 "HgN/A
5:00 PM67 °FMild.12 mph62%29.88 "HgN/A
4:00 PM71 °FMild.15 mph59%29.87 "HgN/A
3:00 PM70 °FMild.9 mph63%29.86 "HgN/A
2:00 PM71 °FMild.6 mph63%29.86 "HgN/A
1:00 PM65 °FMild.10 mph71%29.88 "HgN/A
12:00 PM69 °FMild.9 mph62%29.89 "HgN/A
11:00 AM64 °FMild.8 mph73%29.91 "HgN/A
10:00 AM59 °FCool.6 mph81%29.91 "HgN/A
9:00 AM57 °FCool.3 mph83%29.91 "HgN/A
8:00 AM56 °FCool.2 mph79%29.90 "HgN/A
7:00 AM55 °FCool.7 mph83%29.90 "HgN/A
6:00 AM55 °FCool.6 mph83%29.90 "HgN/A
5:00 AM57 °FCool.6 mph79%29.90 "HgN/A
4:00 AM58 °FCool.8 mph71%29.90 "HgN/A
3:00 AM59 °FCool.9 mph75%29.93 "HgN/A
2:00 AM61 °FCool.12 mph66%29.94 "HgN/A
Weather by CustomWeather, © 2016

See weather overviewHow to use our weather pages